Location: Del Oro Observatory
(38.3044°N, 104.8119°W)
Time: 07:30:15
(UTC-06:00)

Iridium 35 - Visible Passes

Search period start: 31 July 2014 00:00
Search period end: 10 August 2014 00:00
Orbit: 776 x 779 km, 86.4° (Epoch: 30 July)

Date Brightness Start Highest point End Pass type
(mag) Time Alt. Az. Time Alt. Az. Time Alt. Az.
02 Aug 8.5 05:23:26 10° E 05:24:51 11° ENE 05:26:16 10° ENE visible
05 Aug 8.0 05:21:31 10° ESE 05:24:44 17° E 05:27:56 10° NE visible
08 Aug 7.6 05:20:32 10° SE 05:24:39 24° E 05:28:46 10° NNE visible
09 Aug 8.1 04:49:13 10° ESE 04:51:27 13° ENE 04:53:42 10° NE visible
